Location: Highland Meadows Observing Site
(48.4428°N, 114.5461°W)
Time: 20:30:57
(UTC-06:00)

Gurwin Techsat 1B - Visible Passes

Search period start: 02 September 2015 00:00
Search period end: 12 September 2015 00:00
Orbit: 811 x 815 km, 98.5° (Epoch: 01 September)

Date Brightness Start Highest point End Pass type
(mag) Time Alt. Az. Time Alt. Az. Time Alt. Az.
02 Sep 10.9 02:41:12 10° NE 02:43:44 14° E 02:44:58 13° E visible
02 Sep 8.5 04:19:14 10° NNE 04:24:36 88° ESE 04:26:10 48° SSW visible
02 Sep 10.3 06:00:31 10° NNW 06:03:57 17° WNW 06:07:12 10° W visible
03 Sep 9.0 03:56:32 10° NNE 04:01:48 59° E 04:03:03 47° SSE visible
03 Sep 9.9 05:37:11 10° N 05:41:27 24° WNW 05:44:15 16° WSW visible
04 Sep 9.6 03:34:00 10° NNE 03:38:56 38° E 03:39:55 35° ESE visible
04 Sep 9.4 05:14:05 10° N 05:18:54 35° WNW 05:21:08 25° WSW visible
05 Sep 10.2 03:11:39 10° NE 03:15:57 25° E 03:16:48 24° ESE visible
05 Sep 8.9 04:51:06 10° N 04:56:16 52° WNW 04:58:01 37° WSW visible
06 Sep 10.7 02:49:40 10° NE 02:52:53 17° E 02:53:41 16° E visible
06 Sep 8.5 04:28:14 10° NNE 04:33:35 79° WNW 04:34:54 52° SSW visible
06 Sep 10.4 06:09:52 10° NNW 06:12:49 15° NW 06:15:34 10° W visible
07 Sep 11.2 02:29:13 10° ENE 02:29:43 10° E 02:30:34 10° E visible
07 Sep 8.7 04:05:30 10° NNE 04:10:50 70° ESE 04:11:46 57° SSE visible
07 Sep 10.0 05:46:23 10° N 05:50:21 21° WNW 05:52:58 15° W visible
08 Sep 9.3 03:42:53 10° NNE 03:47:59 45° E 03:48:39 43° ESE visible
08 Sep 9.6 05:23:12 10° N 05:27:50 30° WNW 05:29:51 23° W visible
09 Sep 10.0 03:20:26 10° NNE 03:25:03 30° E 03:25:32 29° ESE visible
09 Sep 9.1 05:00:11 10° N 05:05:14 44° WNW 05:06:44 35° WSW visible
10 Sep 10.6 02:58:17 10° NE 03:02:02 20° E 03:02:24 20° E visible
10 Sep 8.6 04:37:16 10° N 04:42:34 67° WNW 04:43:37 54° SW visible
10 Sep 10.6 06:19:21 10° NNW 06:21:40 13° NW 06:23:48 10° WNW visible
11 Sep 11.1 02:36:46 10° ENE 02:38:54 13° E 02:39:17 13° E visible
11 Sep 8.5 04:14:28 10° NNE 04:19:50 82° ESE 04:20:29 69° S visible
11 Sep 10.2 05:55:38 10° NNW 05:59:15 18° WNW 06:01:42 13° W visible
